Regional Weather Roundup
Issued by NWS

Home | Current Version | Previous Version | Graphics & Text | Print | Product List | Glossary On
Versions: 1 2 3 4 5 6 7 8 9 10 11 12 13 14 15 16 17 18 19 20 21 22 23 24 25 26 27 28 29 30 31 32 33 34 35 36 37 38 39 40 41 42 43 44 45 46 47 48 49 50
000
ASUS43 KDTX 030710
RWRMI
MICHIGAN HOURLY REGIONAL WEATHER ROUNDUP
NATIONAL WEATHER SERVICE DETROIT/PONTIAC MI
300 AM EDT FRI JUL 03 2015

NOTE: "FAIR" INDICATES FEW OR NO CLOUDS BELOW 12,000 FEET WITH NO
SIGNIFICANT WEATHER AND/OR OBSTRUCTION TO VISIBILITY.

MIZ047>049-052>055-059>063-066>070-074>076-081>083-030800-
SOUTHEAST LOWER MICHIGAN

CITY           SKY/WX    TMP DP  RH WIND       PRES   REMARKS
ADRIAN         CLEAR     57  52  83 E8        30.01S
ALMA           CLEAR     47  47  98 CALM      30.03S
ANN ARBOR      CLEAR     48  47  96 CALM      30.00F
BAD AXE        CLEAR     42  40  93 CALM      30.03S
CARO           CLEAR     44  44  99 CALM      30.02F
DETROIT CITY   CLEAR     56  48  74 CALM      30.00F
DETROIT        CLEAR     58  49  72 CALM      30.01F
FLINT          CLEAR     54  49  83 CALM      30.01F
GROSSE ILE     CLEAR     57  50  77 NE5       29.99S
HILLSDALE      CLEAR     55  55 100 CALM      30.01S
HOWELL         CLEAR     52  50  93 CALM      30.00F

CITY           SKY/WX    TMP DP  RH WIND       PRES   REMARKS
JACKSON        CLEAR     54  51  90 CALM      30.01S
LAMBERTVILLE   PTCLDY    59  54  84 CALM      30.00S
LANSING        CLEAR     52  47  83 CALM      30.01F
LAPEER         FAIR      45  44  96 CALM      30.02F
MASON          CLEAR     51  47  88 CALM      30.01S
MONROE         CLEAR     55  53  90 CALM      30.00R
MT. CLEMENS    CLEAR     51  48  92 N7        29.99F
PONTIAC        CLEAR     51  47  86 CALM      30.00F
PORT HOPE        N/A     47  44  90 S3        30.00F
PORT HURON     PTCLDY    48  48 100 CALM      30.01F FOG
TRI CITIES     CLEAR     55  46  71 CALM      30.03S
MIDLAND        FAIR      45  44  95 CALM      30.01S
TROY           CLEAR     56  50  81 CALM      30.02F
SAGINAW HB     CLEAR     48  43  81 CALM      30.02S
$$
MIZ043>046-050>051-056>058-064>065-071>073-077>080-030800-
SOUTHWEST LOWER MICHIGAN

CITY           SKY/WX    TMP DP  RH WIND       PRES   REMARKS
BATTLE CREEK   PTCLDY    60  49  66 E3        30.01S
BENTON HARBOR  PTCLDY    58  52  80 E6        29.98F
BIG RAPIDS     CLEAR     50  47  88 CALM      30.02S
COLDWATER      PTCLDY    56  52  88 CALM      30.00F
FREMONT        FAIR      53  52  96 CALM      30.01S
HOLLAND        PTCLDY    54  50  86 CALM      30.01S
GRAND RAPIDS   CLEAR     56  48  74 E3        30.01S
IONIA          FAIR      52  49  91 CALM      30.01S
KALAMAZOO      PTCLDY    56  50  80 CALM      30.00F
LUDINGTON      CLEAR     51  48  91 CALM      30.01S
MARSHALL       PTCLDY    55  51  87 CALM      30.00S
MOUNT PLEASANT CLEAR     48  46  93 CALM      30.02S FOG
MUSKEGON       CLEAR     54  50  86 CALM      30.01S
SOUTH HAVEN    PTCLDY    57  51  80 CALM      29.99F
$$
MIZ016>042-030800-
NORTHERN LOWER MICHIGAN

CITY           SKY/WX    TMP DP  RH WIND       PRES   REMARKS
ALPENA         CLEAR     52  44  74 SW3       30.00S
BEAVER ISLAND  CLEAR     47  44  87 CALM      29.98S
BELLAIRE       CLEAR     48  46  95 CALM      30.00S
CADILLAC       CLEAR     46  44  95 CALM      30.02S
CHARLEVOIX     CLEAR     56  49  78 SE6       30.01S
FRANKFORT      CLEAR     52  44  75 CALM      29.99S
GAYLORD        CLEAR     53  48  83 SW5       30.01S
GRAYLING       CLEAR     44  41  90 CALM      30.02S
HARBOR SPRINGS CLEAR     51  48  90 CALM      29.99S
HOUGHTON LAKE  CLEAR     46  45  96 CALM      30.02F
MANISTEE       CLEAR    N/A N/A N/A E5        30.00S
OSCODA         CLEAR     44  40  84 CALM      30.00S
PELLSTON       PTCLDY    49  47  93 CALM      29.98F
ROGERS CITY    CLEAR     55  46  71 SW8       29.99F
TRAVERSE CITY  CLEAR     52  47  83 CALM      29.98F
$$
MIZ007>008-015-030800-
EASTERN UPPER MICHIGAN

CITY           SKY/WX    TMP DP  RH WIND       PRES   REMARKS
KINROSS        CLOUDY    57  48  72 S6        29.96F
MACKINAC ISLAN PTCLDY    58  50  74 S8        29.97S
NEWBERRY       PTCLDY    55  44  67 SW7       29.96S
S. S. MARIE    CLOUDY    56  48  74 CALM      29.95F
MUNISING         N/A     63  45  51 SW9       29.92F
$$
MIZ004>006-011>014-085-030800-
CENTRAL UPPER MICHIGAN

CITY           SKY/WX    TMP DP  RH WIND       PRES   REMARKS
MANISTIQUE     MOCLDY    49  45  87 S6        29.96S
ESCANABA       CLEAR     55  48  76 W3        29.95F
MENOMINEE      CLEAR     57  50  77 SW8       29.97S
SAWYER-GWINN   MOCLDY    60  48  64 SW9       29.94F
$$
MIZ001>003-009>011-084-030800-
WESTERN UPPER MICHIGAN

CITY           SKY/WX    TMP DP  RH WIND       PRES   REMARKS
IRON MOUNTAIN  CLEAR     58  48  69 SW3       29.96F
HOUGHTON       MOCLDY    67  52  58 W14       29.89S
COPPER HARBOR    N/A     67  55  65 VRB6      29.85F
IRONWOOD       CLEAR     63  54  72 SW9       29.92S
$$

ABBREVIATIONS USED IN REMARKS
   TC - TEMPERATURE IN CELSIUS
  WCI - WIND CHILL INDEX
   HX - HEAT INDEX
  VSB - VISIBILITY



USA.gov is the U.S. government's official web portal to all federal, state and local government web resources and services.